{"data":{"norad_id":37790,"intl_designator":"2011-044C","name":"NIGERIASAT-X","alt_names":[],"object_type":"PAYLOAD","status":"ACTIVE","operator":null,"country":"NIG","launch_date":"2011-08-17","launch_site_code":"DLS","launch_vehicle":null,"mission":null,"orbit_class":"UNKNOWN","rcs_meters":0.208,"size_class":null,"mass_kg":null,"dimensions":null,"purposes":[],"wikipedia_slug":null,"has_3d_model":false,"image_url":null,"decayed_at":null,"tle_current":{"epoch":"2026-05-24T21:58:36.314112Z","epoch_age_seconds":85618,"freshness":"FRESH","line1":"1 37790U 11044C   26144.91569808  .00000295  00000+0  69289-4 0  9992","line2":"2 37790  97.8535 130.2698 0013444  52.3009 307.9409 14.60846194786779","mean_motion":14.60846194,"eccentricity":0.0013444,"inclination_deg":97.8535,"raan_deg":130.2698,"arg_perigee_deg":52.3009,"mean_anomaly_deg":307.9409,"bstar":6.9289e-5,"rev_number":78677,"period_min":98.573005557627,"perigee_km":680.940025091,"apogee_km":699.94602305974,"semimajor_km":7068.5800240754,"source":"CELESTRAK","updated_at":"2026-05-25T13:37:55.264837Z"}}}